Content
SEND FEEDBACK

Daily
Averages
Monthly
Summary
Brazil

SÃO PAULO, SÃO PAULO


Home > South America > Brazil > São Paulo
Elevation: 2634 feet     Latitude: 23 37S     Longitude: 046 39W

WEATHER
 
SELECT A DAY
Number of Records: 162,884;   Date Range: 6/30/96 - 12/17/14
 
SHARE

PRINT THIS DATA

[ ← Previous Day ]
WEATHER ALMANAC - MAY 6, 2013
[ Next Day → ]
[ °C ]   °F
Weather ElementAverageHighLow
Temperature61.6 °F68 °F (1:00 am)53.6 °F (5:00 am)
Dewpoint50.7 °F61 °F (3:00 am)46.4 °F (9:00 am)
Humidity68.3 %88 % (6:00 am)46 % (3:00 pm)
Barometer30.08 in30.15 in (10:00 pm)29.98 in (2:00 am)
Wind Speed7.5 mph19.6 mph (5:00 am)
Wind Gust31.1 mph (5:00 am)
Weather ElementAverage
Visibility6.1 mi
Wind DirectionSSE (156.7 °)

Weather ElementTotal
Precipitation---
Heating Degree Days4.2 (Base 65)
Growing Degree Days10.8 (Base 50)
Averaged from 24 records on May 6, 2013
WEATHER CONDITIONS BREAKOUT
WIND DIRECTION BREAKOUT
WEATHER BY HOUR - MAY 6, 2013
[ °C ]   °F
Local TimeTemperatureDewpointHumidityBarometerVisibilityWind DirectionWind SpeedGust SpeedPrecipitationEventsConditions
1:00 AM68.0 °F60.8 °F78 %30.01 in6.2 miSW (220°)5.8 mphOvercast
2:00 AM68.0 °F60.8 °F78 %29.98 in6.2 miSouth (190°)4.6 mphMostly Cloudy
3:00 AM67.0 °F61.0 °F77 %6.0 miSSW (200°)3.5 mphMist
3:00 AM66.2 °F60.8 °F83 %29.98 in5.6 miSSW (200°)3.5 mphOvercast
4:00 AM57.2 °F51.8 °F82 %29.98 in5.0 miSouth (180°)11.5 mphOvercast
5:00 AM53.6 °F48.2 °F82 %30.06 in6.2 miSouth (190°)19.6 mph31.1 mphOvercast
6:00 AM53.6 °F50.0 °F88 %30.09 in6.2 miSSE (160°)11.5 mphRainLight Rain
7:00 AM55.4 °F50.0 °F82 %30.09 in6.2 miSSE (150°)6.9 mphMostly Cloudy
8:00 AM57.2 °F48.2 °F72 %30.12 in6.2 miSSE (160°)9.2 mphMostly Cloudy
9:00 AM59.0 °F46.4 °F63 %30.12 in6.2 miESE (110°)6.9 mphMostly Cloudy
10:00 AM60.8 °F48.2 °F63 %30.12 in6.2 miNE (50°)4.6 mphMostly Cloudy
11:00 AM64.4 °F48.2 °F56 %30.12 in6.2 miSSE (160°)3.5 mphScattered Clouds
12:00 PM64.4 °F50.0 °F59 %30.09 in6.2 miSSE (160°)6.9 mphPartly Cloudy
1:00 PM66.2 °F48.2 °F52 %30.06 in6.2 miSSE (150°)8.1 mphScattered Clouds
2:00 PM68.0 °F50.0 °F52 %30.06 in6.2 miSSE (150°)6.9 mphMostly Cloudy
3:00 PM68.0 °F46.4 °F46 %30.04 in6.2 miSW (220°)8.1 mphMostly Cloudy
4:00 PM68.0 °F48.2 °F49 %30.06 in6.2 miSouth (170°)8.1 mphMostly Cloudy
5:00 PM64.4 °F50.0 °F59 %30.06 in6.2 miSE (140°)11.5 mphScattered Clouds
6:00 PM60.8 °F48.2 °F63 %30.06 inSE (130°)11.5 mphClear
7:00 PM59.0 °F50.0 °F72 %30.09 inSSE (160°)9.2 mphClear
8:00 PM57.2 °F48.2 °F72 %30.12 inSE (130°)6.9 mphClear
9:00 PM57.2 °F48.2 °F72 %30.12 inSE (140°)4.6 mphClear
10:00 PM57.2 °F46.4 °F67 %30.15 inSE (130°)4.6 mphClear
11:00 PM57.2 °F48.2 °F72 %30.15 inESE (110°)3.5 mphClear
Hourly data recorded from SBSP, located miles away from São Paulo, São Paulo







STORIES FROM OUR PARTNERS